This demonstration page uses our WeatherBlox Daily Observations layout. Learn more.

Left ArrowRight Arrow

39.51506, -84.39828

Hourly Observations for February 11, 2016

Temp ( °F °C ) Dew Point ( °F °C ) Humidity (%) Winds ( mph kmh ) Pressure ( in mb ) Visibility ( mi km ) Precip ( " mm )
12:15 am 00:15 Cloudy 17 -8.5 6 -14.2 64 64 W 5 7 30.21 1023 10 16 0.00 0.00
12:35 am 00:35 Mostly Cloudy 17 -8.5 7 -14 65 65 W 5 7 30.24 1024 10 16 0.00 0.00
12:55 am 00:55 Mostly Cloudy 16 -8.9 6 -14.2 66 66 WSW 5 7 30.21 1023 10 16 0.00 0.00
1:15 am 01:15 Cloudy 14 -9.8 6 -14.6 68 68 WSW 5 7 30.24 1024 10 16 0.00 0.00
1:35 am 01:35 Cloudy 14 -9.8 6 -14.3 70 70 WSW 5 7 30.24 1024 10 16 0.00 0.00
1:55 am 01:55 Partly Cloudy 14 -9.8 6 -14.3 70 70 WSW 6 9 30.21 1023 10 16 0.00 0.00
2:15 am 02:15 Partly Cloudy 14 -9.8 7 -13.9 72 72 WSW 5 7 30.21 1023 10 16 0.00 0.00
2:35 am 02:35 Clear 14 -9.8 9 -13 78 78 WSW 3 6 30.21 1023 10 16 0.00 0.00
2:55 am 02:55 Clear 12 -11.2 7 -13.8 81 81 Calm 30.21 1023 10 16 0.00 0.00
3:15 am 03:15 Clear 9 -12.6 5 -14.8 84 84 W 3 6 30.24 1024 10 16 0.00 0.00
3:35 am 03:35 Clear 9 -12.6 5 -15.1 82 82 Calm 30.24 1024 10 16 0.00 0.00
3:55 am 03:55 Clear 12 -11.2 7 -13.7 82 82 Calm 30.24 1024 10 16 0.00 0.00
4:15 am 04:15 Mostly Cloudy 10 -12.1 4 -15.4 77 77 Calm 30.24 1024 10 16 0.00 0.00
4:35 am 04:35 Partly Cloudy 13 -10.4 8 -13.4 79 79 Calm 30.24 1024 10 16 0.00 0.00
4:55 am 04:55 Mostly Cloudy 13 -10.4 7 -13.8 76 76 Calm 30.24 1024 10 16 0.00 0.00
5:15 am 05:15 Cloudy 10 -12 4 -15.5 75 75 Calm 30.24 1024 10 16 0.00 0.00
5:35 am 05:35 Cloudy 12 -11.2 8 -13.6 83 83 Calm 30.27 1025 10 16 0.00 0.00
5:55 am 05:55 Cloudy 12 -11.2 8 -13.6 83 83 Calm 30.27 1025 10 16 0.00 0.00
6:15 am 06:15 Mostly Cloudy 14 -9.8 9 -13 78 78 Calm 30.27 1025 10 16 0.00 0.00
6:35 am 06:35 Partly Cloudy 14 -9.8 8 -13.2 76 76 Calm 30.27 1025 10 16 0.00 0.00
6:55 am 06:55 Clear 14 -10 8 -13.6 75 75 Calm 30.30 1026 10 16 0.00 0.00
7:15 am 07:15 Clear 10 -12.1 5 -15.2 78 78 Calm 30.30 1026 10 16 0.00 0.00
7:35 am 07:35 Sunny 9 -12.6 5 -15.2 81 81 Calm 30.30 1026 7 11 0.00 0.00
7:55 am 07:55 Sunny with Mist and Fog 9 -12.6 5 -15 82 82 Calm 30.33 1027 4 6 0.00 0.00
8:15 am 08:15 Sunny with Mist and Fog 10 -12.5 5 -15 82 82 Calm 30.33 1027 4 6 0.00 0.00
8:35 am 08:35 Sunny 10 -12.1 5 -14.9 80 80 Calm 30.33 1027 10 16 0.00 0.00
8:55 am 08:55 Sunny 13 -10.4 9 -12.9 82 82 SW 3 6 30.33 1027 10 16 0.00 0.00
9:15 am 09:15 Sunny 14 -9.8 9 -12.9 78 78 SW 6 9 30.36 1028 10 16 0.00 0.00
9:35 am 09:35 Sunny 17 -8.5 8 -13.6 67 67 WSW 5 7 30.36 1028 10 16 0.00 0.00
9:55 am 09:55 Sunny 18 -8 7 -14.1 62 62 Calm 30.36 1028 10 16 0.00 0.00
10:15 am 10:15 Sunny 19 -7 8 -13.6 60 60 SSW 3 6 30.36 1028 10 16 0.00 0.00
10:35 am 10:35 Sunny 19 -7 6 -14.2 57 57 Calm 30.36 1028 10 16 0.00 0.00
10:55 am 10:55 Sunny 21 -6.1 6 -14.4 52 52 Calm 30.36 1028 10 16 0.00 0.00
11:15 am 11:15 Sunny 22 -5.5 5 -14.8 48 48 Calm 30.36 1028 10 16 0.00 0.00
11:35 am 11:35 Partly Cloudy 23 -5.1 4 -15.8 43 43 W 7 11 30.36 1028 10 16 0.00 0.00
11:55 am 11:55 Sunny 23 -5 3 -16.1 42 42 WNW 8 13 30.36 1028 10 16 0.00 0.00
12:15 pm 12:15 Partly Cloudy 24 -4.2 2 -16.4 38 38 W 8 13 30.33 1027 10 16 0.00 0.00
12:35 pm 12:35 Partly Cloudy 24 -4.2 2 -16.4 38 38 W 6 9 30.33 1027 10 16 0.00 0.00
12:55 pm 12:55 Partly Cloudy 24 -4.6 1 -17.2 37 37 NW 8 13 30.36 1028 10 16 0.00 0.00
1:15 pm 13:15 Partly Cloudy 24 -4.2 2 -16.8 37 37 W 7 11 30.33 1027 10 16 0.00 0.00
1:35 pm 13:35 Sunny 24 -4.2 1 -17.1 36 36 W 7 11 30.33 1027 10 16 0.00 0.00
1:55 pm 13:55 Partly Cloudy 27 -2.8 4 -15.8 36 36 WSW 8 13 30.33 1027 10 16 0.00 0.00
2:15 pm 14:15 Partly Cloudy 27 -2.8 4 -15.7 37 37 W 6 9 30.30 1026 10 16 0.00 0.00
2:35 pm 14:35 Mostly Cloudy 27 -2.9 4 -15.8 37 37 W 8 13 30.33 1027 10 16 0.00 0.00
2:55 pm 14:55 Mostly Cloudy 27 -2.8 3 -15.9 36 36 W 7 11 30.33 1027 10 16 0.00 0.00
3:15 pm 15:15 Mostly Cloudy 27 -2.8 4 -15.7 37 37 WNW 10 17 30.33 1027 10 16 0.00 0.00
3:35 pm 15:35 Partly Cloudy 25 -4 2 -16.6 37 37 WNW 5 7 30.33 1027 10 16 0.00 0.00
3:55 pm 15:55 Sunny 25 -4.1 2 -16.5 38 38 NW 8 13 30.33 1027 10 16 0.00 0.00
4:15 pm 16:15 Partly Cloudy 24 -4.2 2 -16.6 38 38 W 5 7 30.33 1027 10 16 0.00 0.00
4:35 pm 16:35 Partly Cloudy 25 -3.7 1 -17 35 35 N 5 7 30.33 1027 10 16 0.00 0.00
4:55 pm 16:55 Partly Cloudy 25 -3.8 3 -16.2 38 38 NNW 5 7 30.33 1027 10 16 0.00 0.00
5:15 pm 17:15 Mostly Cloudy 24 -4.2 4 -15.7 41 41 W 7 11 30.33 1027 10 16 0.00 0.00
5:35 pm 17:35 Mostly Cloudy 24 -4.2 4 -15.3 42 42 WNW 7 11 30.33 1027 10 16 0.00 0.00
5:55 pm 17:55 Mostly Cloudy 23 -5.1 4 -15.5 44 44 W 6 9 30.36 1028 10 16 0.00 0.00
6:15 pm 18:15 Mostly Cloudy 23 -5.1 3 -15.9 43 43 W 6 9 30.39 1029 10 16 0.00 0.00
6:35 pm 18:35 Cloudy 23 -5.1 5 -15.1 46 46 SW 6 9 30.39 1029 10 16 0.00 0.00
6:55 pm 18:55 Cloudy N/A N/A N/A Calm N/A 10 16 0.00 0.00
7:15 pm 19:15 Cloudy 23 -5 5 -15 46 46 WSW 5 7 30.39 1029 10 16 0.00 0.00
7:35 pm 19:35 Cloudy 22 -5.5 6 -14.5 50 50 W 6 9 30.39 1029 10 16 0.00 0.00
7:55 pm 19:55 Partly Cloudy 22 -5.6 5 -15.1 48 48 WNW 3 6 30.39 1029 10 16 0.00 0.00
8:15 pm 20:15 Clear 22 -5.6 5 -15 48 48 NW 3 6 30.39 1029 10 16 0.00 0.00
8:35 pm 20:35 Clear 22 -5.6 6 -14.7 49 49 Calm 30.39 1029 10 16 0.00 0.00
8:55 pm 20:55 Clear 19 -7 9 -12.6 65 65 Calm 30.39 1029 10 16 0.00 0.00
9:15 pm 21:15 Clear 19 -7 10 -12.5 65 65 Calm 30.39 1029 10 16 0.00 0.00
9:35 pm 21:35 Clear 18 -8 8 -13.1 67 67 Calm 30.39 1029 10 16 0.00 0.00
9:55 pm 21:55 Clear 18 -7.8 9 -12.6 69 69 Calm 30.39 1029 10 16 0.00 0.00
10:15 pm 22:15 Clear 17 -8.5 9 -13 70 70 Calm 30.39 1029 10 16 0.00 0.00
10:35 pm 22:35 Clear 16 -8.9 9 -12.7 74 74 Calm 30.39 1029 10 16 0.00 0.00
10:55 pm 22:55 Clear 17 -8.5 10 -12.2 75 75 Calm 30.39 1029 10 16 0.00 0.00
11:15 pm 23:15 Clear 17 -8.5 10 -12.5 73 73 Calm 30.36 1028 10 16 0.00 0.00
11:35 pm 23:35 Clear 17 -8.5 10 -12.1 76 76 Calm 30.36 1028 10 16 0.00 0.00
11:55 pm 23:55 Clear 14 -9.8 8 -13.2 76 76 Calm 30.36 1028 10 16 0.00 0.00

Powered by AerisWeather